• In Latvia
  • List of Countries
  • For 7 days
  • Water Temperature
  • Satellite Maps
  • Weather Map
  • Weather Widgets
  • user-avatar
    Login

    Hourly Weather Townsville

    Today, 20 January, Saturday

    Time Temperature Precipitation Wind Pressure Humidity
    00:00 +25°C° 0 mm 4 mps 751 mmHg 84%
    01:00 +23°C° 0 mm 4 mps 751 mmHg 85%
    02:00 +23°C° 0 mm 4 mps 751 mmHg 87%
    03:00 +22°C° 0 mm 4 mps 750 mmHg 90%
    04:00 +22°C° 0 mm 3 mps 750 mmHg 92%
    05:00 +22°C° 0 mm 3 mps 750 mmHg 91%
    06:00 +24°C° 0 mm 3 mps 750 mmHg 89%
    07:00 +24°C° 0 mm 3 mps 751 mmHg 87%
    08:00 +27°C° 0 mm 4 mps 751 mmHg 76%
    09:00 +29°C° 0 mm 4 mps 751 mmHg 66%
    10:00 +32°C° 0 mm 4 mps 751 mmHg 56%
    11:00 +33°C° 0 mm 4 mps 750 mmHg 51%
    12:00 +34°C° 0 mm 4 mps 750 mmHg 46%
    13:00 +35°C° 0 mm 4 mps 750 mmHg 42%
    14:00 +34°C° 0 mm 4 mps 749 mmHg 43%
    15:00 +34°C° 0 mm 5 mps 749 mmHg 44%
    16:00 +33°C° 0 mm 5 mps 748 mmHg 50%
    17:00 +30°C° 0 mm 5 mps 749 mmHg 58%
    18:00 +29°C° 0 mm 4 mps 749 mmHg 66%
    19:00 +27°C° 0 mm 4 mps 749 mmHg 74%
    20:00 +27°C° 0 mm 4 mps 750 mmHg 77%
    21:00 +26°C° 0 mm 4 mps 750 mmHg 79%
    22:00 +26°C° 0 mm 3 mps 751 mmHg 82%
    23:00 +26°C° 0 mm 4 mps 750 mmHg 83%

    Tomorrow, 21 January, Sunday

    Time Temperature Precipitation Wind Pressure Humidity
    00:00 +26°C° 0 mm 4 mps 750 mmHg 84%
    01:00 +26°C° 0 mm 4 mps 750 mmHg 85%
    02:00 +26°C° 0 mm 4 mps 750 mmHg 85%
    03:00 +26°C° 0 mm 4 mps 750 mmHg 86%
    04:00 +26°C° 0 mm 4 mps 749 mmHg 86%
    05:00 +26°C° 0 mm 4 mps 749 mmHg 86%
    06:00 +26°C° 0 mm 4 mps 750 mmHg 85%
    07:00 +26°C° 0 mm 4 mps 750 mmHg 85%
    08:00 +27°C° 0 mm 4 mps 750 mmHg 80%
    09:00 +28°C° 0 mm 4 mps 750 mmHg 76%
    10:00 +29°C° 0 mm 4 mps 750 mmHg 72%
    11:00 +29°C° 0.1 mm 4 mps 750 mmHg 72%
    12:00 +29°C° 0.1 mm 4 mps 750 mmHg 72%
    13:00 +29°C° 0.1 mm 4 mps 749 mmHg 71%
    14:00 +29°C° 0.1 mm 4 mps 749 mmHg 73%
    15:00 +28°C° 0.1 mm 4 mps 748 mmHg 74%
    16:00 +28°C° 0.1 mm 4 mps 748 mmHg 75%
    17:00 +28°C° 0 mm 4 mps 748 mmHg 77%
    18:00 +27°C° 0 mm 4 mps 749 mmHg 79%
    19:00 +27°C° 0 mm 3 mps 749 mmHg 82%
    20:00 +27°C° 0 mm 4 mps 749 mmHg 83%
    21:00 +26°C° 0 mm 4 mps 750 mmHg 84%
    22:00 +26°C° 0 mm 4 mps 750 mmHg 85%
    23:00 +26°C° 0 mm 4 mps 750 mmHg 86%

    Day after tomorrow, 22 January, Monday

    Time Temperature Precipitation Wind Pressure Humidity
    00:00 +26°C° 0 mm 4 mps 750 mmHg 87%
    01:00 +26°C° 0 mm 4 mps 749 mmHg 88%
    02:00 +26°C° 0.1 mm 4 mps 749 mmHg 88%
    03:00 +26°C° 0.1 mm 4 mps 748 mmHg 89%
    04:00 +26°C° 0.1 mm 4 mps 748 mmHg 89%
    05:00 +26°C° 0.2 mm 4 mps 748 mmHg 90%
    06:00 +26°C° 0.2 mm 4 mps 749 mmHg 90%
    07:00 +26°C° 0.2 mm 4 mps 749 mmHg 90%
    08:00 +26°C° 0.6 mm 4 mps 749 mmHg 90%
    09:00 +27°C° 0.6 mm 4 mps 750 mmHg 89%
    10:00 +27°C° 0.6 mm 4 mps 750 mmHg 89%
    11:00 +27°C° 0.6 mm 4 mps 750 mmHg 89%
    12:00 +26°C° 0.6 mm 4 mps 749 mmHg 89%
    13:00 +26°C° 0.6 mm 4 mps 749 mmHg 89%
    14:00 +26°C° 0.8 mm 4 mps 749 mmHg 88%
    15:00 +26°C° 0.8 mm 4 mps 748 mmHg 87%
    16:00 +26°C° 0.8 mm 5 mps 748 mmHg 85%
    17:00 +26°C° 0.2 mm 5 mps 748 mmHg 87%
    18:00 +25°C° 0.2 mm 5 mps 748 mmHg 88%
    19:00 +23°C° 0.2 mm 5 mps 749 mmHg 90%
    20:00 +23°C° 0.1 mm 5 mps 749 mmHg 89%
    21:00 +23°C° 0.1 mm 5 mps 749 mmHg 89%
    22:00 +23°C° 0.1 mm 4 mps 750 mmHg 88%
    23:00 +23°C° 0.7 mm 5 mps 749 mmHg 90%

    23 January, Tuesday

    Time Temperature Precipitation Wind Pressure Humidity
    00:00 +23°C° 0.7 mm 5 mps 749 mmHg 91%
    01:00 +22°C° 0.7 mm 5 mps 748 mmHg 93%
    02:00 +22°C° 1.6 mm 5 mps 748 mmHg 94%
    03:00 +22°C° 1.6 mm 5 mps 748 mmHg 95%
    04:00 +22°C° 1.6 mm 6 mps 747 mmHg 96%
    05:00 +23°C° 1.2 mm 6 mps 748 mmHg 96%
    06:00 +23°C° 1.2 mm 6 mps 748 mmHg 96%
    07:00 +24°C° 1.2 mm 7 mps 749 mmHg 97%
    08:00 +24°C° 0.4 mm 7 mps 749 mmHg 94%
    09:00 +26°C° 0.4 mm 7 mps 749 mmHg 92%
    10:00 +27°C° 0.4 mm 7 mps 749 mmHg 89%
    11:00 +27°C° 3 mm 7 mps 749 mmHg 89%
    12:00 +27°C° 3 mm 6 mps 748 mmHg 88%
    13:00 +27°C° 3 mm 6 mps 748 mmHg 87%
    14:00 +27°C° 5.2 mm 5 mps 748 mmHg 91%
    15:00 +26°C° 5.2 mm 5 mps 747 mmHg 94%
    16:00 +26°C° 5.2 mm 4 mps 747 mmHg 98%
    17:00 +26°C° 3.6 mm 4 mps 747 mmHg 98%
    18:00 +25°C° 3.6 mm 4 mps 748 mmHg 98%
    19:00 +25°C° 3.6 mm 4 mps 748 mmHg 98%
    20:00 +25°C° 2.6 mm 4 mps 748 mmHg 98%
    21:00 +25°C° 2.6 mm 4 mps 749 mmHg 98%
    22:00 +25°C° 2.6 mm 4 mps 749 mmHg 98%
    23:00 +25°C° 3.8 mm 4 mps 748 mmHg 98%

    24 January, Wednesday

    Time Temperature Precipitation Wind Pressure Humidity
    00:00 +25°C° 3.8 mm 4 mps 748 mmHg 98%
    01:00 +25°C° 3.8 mm 3 mps 748 mmHg 99%
    02:00 +25°C° 5 mm 3 mps 747 mmHg 99%
    03:00 +26°C° 5 mm 3 mps 747 mmHg 99%
    04:00 +26°C° 5 mm 3 mps 746 mmHg 99%
    05:00 +26°C° 6.2 mm 3 mps 747 mmHg 99%
    06:00 +26°C° 6.2 mm 3 mps 747 mmHg 99%
    07:00 +26°C° 6.2 mm 3 mps 748 mmHg 99%
    08:00 +26°C° 5.7 mm 3 mps 748 mmHg 99%
    09:00 +26°C° 5.7 mm 3 mps 748 mmHg 99%
    10:00 +26°C° 5.7 mm 2 mps 748 mmHg 99%
    11:00 +26°C° 8.1 mm 2 mps 748 mmHg 98%
    12:00 +26°C° 8.1 mm 2 mps 747 mmHg 98%
    13:00 +26°C° 8.1 mm 2 mps 747 mmHg 98%
    14:00 +26°C° 4.6 mm 2 mps 746 mmHg 97%
    15:00 +27°C° 4.6 mm 2 mps 746 mmHg 96%
    16:00 +27°C° 4.6 mm 2 mps 746 mmHg 95%
    17:00 +27°C° 2.1 mm 2 mps 746 mmHg 96%
    18:00 +26°C° 2.1 mm 3 mps 746 mmHg 97%
    19:00 +26°C° 2.1 mm 3 mps 747 mmHg 98%
    20:00 +26°C° 1.4 mm 3 mps 747 mmHg 99%
    21:00 +26°C° 1.4 mm 2 mps 747 mmHg 99%
    22:00 +26°C° 1.4 mm 2 mps 748 mmHg 99%
    23:00 +26°C° 1.6 mm 2 mps 747 mmHg 99%

    25 January, Thursday

    Time Temperature Precipitation Wind Pressure Humidity
    00:00 +26°C° 1.6 mm 1 mps 747 mmHg 99%
    01:00 +26°C° 1.6 mm 1 mps 746 mmHg 99%
    02:00 +26°C° 1.6 mm 1 mps 746 mmHg 98%
    03:00 +26°C° 1.6 mm 1 mps 746 mmHg 98%
    04:00 +26°C° 1.6 mm 1 mps 746 mmHg 97%
    05:00 +26°C° 0.6 mm 1 mps 746 mmHg 97%
    06:00 +26°C° 0.6 mm 1 mps 746 mmHg 96%
    07:00 +27°C° 0.6 mm 1 mps 747 mmHg 96%
    08:00 +28°C° 0.1 mm 1 mps 747 mmHg 91%
    09:00 +29°C° 0.1 mm 1 mps 747 mmHg 86%
    10:00 +30°C° 0.1 mm 1 mps 747 mmHg 81%
    11:00 +30°C° 0.4 mm 2 mps 747 mmHg 83%
    12:00 +29°C° 0.4 mm 2 mps 746 mmHg 85%
    13:00 +29°C° 0.4 mm 2 mps 746 mmHg 87%
    14:00 +28°C° 0.1 mm 2 mps 745 mmHg 89%
    15:00 +28°C° 0.1 mm 2 mps 745 mmHg 90%
    16:00 +28°C° 0.1 mm 2 mps 745 mmHg 91%
    17:00 +28°C° 0.1 mm 2 mps 745 mmHg 92%
    18:00 +27°C° 0.1 mm 2 mps 745 mmHg 94%
    19:00 +27°C° 0.1 mm 2 mps 746 mmHg 95%
    20:00 +27°C° 0.7 mm 3 mps 746 mmHg 95%
    21:00 +27°C° 0.7 mm 3 mps 746 mmHg 96%
    22:00 +27°C° 0.7 mm 3 mps 747 mmHg 96%
    23:00 +27°C° 0.5 mm 3 mps 746 mmHg 96%
    Show more